Regional Weather Roundup
Issued by NWS

Home | Current Version | Previous Version | Graphics & Text | Print | Product List | Glossary On
Versions: 1 2 3 4 5 6 7 8 9 10 11 12 13 14 15 16 17 18 19 20 21 22 23 24 25 26 27 28 29 30 31 32 33 34 35 36 37 38 39 40 41 42 43 44 45 46 47 48 49 50
000
ASUS43 KOAX 231302
RWRNE

WEATHER ROUNDUP FOR NEBRASKA
NATIONAL WEATHER SERVICE OMAHA NE
800 AM CDT SAT MAY 23 2015

NOTES: SATELLITE DATA IS BEING USED TO AUGMENT CLOUD COVER ABOVE
       12000 FEET.
       "FAIR" INDICATES FEW OR NO CLOUDS BELOW 12,000 FEET WITH NO
       SIGNIFICANT WEATHER AND/OR OBSTRUCTIONS TO VISIBILITY.

  * THESE STATIONS DO NOT REPORT WEATHER SUCH AS RAIN...SNOW OR FOG.

NEZ001>004-019>022-054>056-231400-
NEBRASKA PANHANDLE

CITY           SKY/WX    TMP DP  RH WIND       PRES   REMARKS
SCOTTSBLUFF    FOG       47  47 100 E10       30.02F VSB 3/4
ALLIANCE       FOG       49  48  97 E7        30.04R VSB 1/4
CHADRON        CLOUDY    50  46  86 E6        30.04F
SIDNEY         CLOUDY    50  49  96 E6        30.03F FOG
$$

NEZ057>060-069>072-079>082-231400-
SOUTHWEST NEBRASKA

CITY           SKY/WX    TMP DP  RH WIND       PRES   REMARKS
NORTH PLATTE   CLOUDY    53  51  93 SE6       30.07R
IMPERIAL       CLOUDY    52  51  97 SE15      30.04R
LEXINGTON      CLOUDY    55  54  97 SE13      30.09R FOG
MCCOOK         CLOUDY    53  52  96 SE13G21   30.07R
$$

NEZ005>010-023>029-035>040-094-231400-
NORTH CENTRAL NEBRASKA

CITY           SKY/WX    TMP DP  RH WIND       PRES   REMARKS
VALENTINE      FOG       50  49  96 NE8       30.08F VSB 1/2
AINSWORTH      CLOUDY    53  53 100 E6        30.09F FOG
BROKEN BOW     FOG       53  52  96 SE9       30.09S VSB 1/2
ORD            CLOUDY    52  50  93 SE8       30.09F
$$

NEZ041-046>049-061>064-073>077-083>087-231400-
SOUTH CENTRAL NEBRASKA

CITY           SKY/WX    TMP DP  RH WIND       PRES   REMARKS
GRAND ISLAND   CLOUDY    53  51  93 SE12      30.11F
HASTINGS       CLOUDY    53  51  93 S15G23    30.12F
KEARNEY *      CLOUDY    54  52  94 SE13      30.12R
$$

NEZ011>018-030>034-042>045-231400-
NORTHEAST NEBRASKA

CITY           SKY/WX    TMP DP  RH WIND       PRES   REMARKS
NORFOLK        CLOUDY    55  51  86 SE7       30.16F
COLUMBUS *     CLOUDY    54  46  76 SE7       30.19F
FREMONT        CLOUDY    59  51  74 SE7       30.19F
TEKAMAH        CLOUDY    59  52  77 SE6       30.21R
$$

NEZ050>053-065>068-078-088>093-231400-
SOUTHEAST NEBRASKA

CITY           SKY/WX    TMP DP  RH WIND       PRES   REMARKS
LINCOLN        CLOUDY    57  53  86 E6        30.18F
OMAHA EPPLEY   CLOUDY    59  52  77 S8        30.21S
FALLS CITY     CLOUDY    57  55  93 E9        30.20F
NEBRASKA CITY  LGT RAIN  56  55  97 SE7       30.20F
PLATTSMOUTH    CLOUDY    57  53  86 SE3       30.21S
$$

NEZ044-045-051>053-067-231400-
OMAHA AREA

CITY           SKY/WX    TMP DP  RH WIND       PRES   REMARKS
OMAHA EPPLEY   CLOUDY    59  52  77 S8        30.21S
FREMONT        CLOUDY    59  51  74 SE7       30.19F
OFFUTT AFB     LGT RAIN  57  53  86 S5        30.21S
PLATTSMOUTH    CLOUDY    57  53  86 SE3       30.21S
WAHOO          CLOUDY    57  52  84 SE8       30.19F
$$


USA.gov is the U.S. government's official web portal to all federal, state and local government web resources and services.